Regional Weather Roundup
Issued by NWS Charleston, SC

Current Version | Previous Version | Text Only | Print | Product List | Glossary Off
Versions: 1 2 3 4 5 6 7 8 9 10 11 12 13 14 15 16 17 18 19 20 21 22 23 24 25 26 27 28 29 30 31 32 33 34 35 36 37 38 39 40 41 42 43 44 45 46 47 48 49 50

000
ASUS42 KCHS 221910
RWRCHS
REGIONAL WEATHER ROUNDUP
NATIONAL WEATHER SERVICE CHARLESTON SC
300 PM EDT WED OCT 22 2014

NOTE: "FAIR" INDICATES FEW OR NO CLOUDS BELOW 12,000 FEET WITH NO
SIGNIFICANT WEATHER AND/OR OBSTRUCTIONS TO VISIBILITY.

NOT ALL STATIONS ARE QUALITY CONTROLLED BY THE NATIONAL
WEATHER SERVICE. USE DATA WITH CAUTION...ESPECIALLY
DEWPOINT OBSERVATIONS.

SCZ027-030-031-034>040-042>050-222000-
...SOUTH CAROLINA...

CITY           SKY/WX    TMP DP  RH WIND       PRES   REMARKS
N CHARLESTON   SUNNY     70  43  37 N9G18     30.00F
WATERFRONT PRK NOT AVBL
FORT JOHNSON   NOT AVBL
JOHNS ISLAND   CLEAR     70  45  40 NW10G17   30.00F
PINOPOLIS      NOT AVBL
MONCKS CORNER  FAIR      68  48  49 N9        30.01S
SUMMERVILLE    FAIR      68  45  42 N13       30.02F
BEAUFORT MCAS  SUNNY     70  43  37 NW12      30.01F
BEAUFORT ARPT  FAIR      70  46  43 N13       30.01S
HILTON HEAD IS SUNNY     68  45  42 N9G22     30.03F
GEORGETOWN     NOT AVBL
WALTERBORO     CLEAR     70  34  26 NW10G16   30.02S
ORANGEBURG     SUNNY     68  40  35 N10       30.03F
BARNWELL       FAIR      70  41  35 N10G16    30.03F
AIKEN          FAIR      66  45  45 N9        30.07F
MANNING        FAIR      68  43  40 N6        30.02S
KINGSTREE      NOT AVBL
COLUMBIA       MOSUNNY   68  38  33 N8        30.03F
SUMTER         SUNNY     67  42  39 NW10G21   30.00F
FLORENCE       SUNNY     69  41  36 NW13G18   29.99F
MYRTLE BEACH   SUNNY     66  41  39 N14       29.98F
N MYRTLE BEACH SUNNY     67  43  41 NW7G18    29.96F

$$

GAZ063-065-086>088-099>101-113>116-118-119-134-136>141-150-222000-
...GEORGIA...

CITY           SKY/WX    TMP DP  RH WIND       PRES   REMARKS
SAVANNAH ARPT  SUNNY     71  43  36 NW7G17    30.02F
HUNTER AAF     SUNNY     70  45  40 NW8       30.00F
FORT STEWART   SUNNY     70  44  39 N8        30.01F
STATESBORO     NOT AVBL
SYLVANIA       CLEAR     74  47  38 N3        30.04S
CLAXTON        FAIR      72  45  37 N7        30.03F
THOMSON        SUNNY     69  49  49 NW7       30.10F
AUGUSTA-BUSH   SUNNY     70  37  29 N9        30.04F
AUGUSTA-DANIEL SUNNY     70  38  31 N7        30.05F
SWAINSBORO     FAIR      72  43  35 MISG      30.04F
VIDALIA        SUNNY     70  45  40 N6        30.03F
ALMA           SUNNY     71  44  37 VRB7      30.02F
WAYCROSS       SUNNY     75  49  38 NE9       30.02S
JESUP          FAIR      73  46  38 NW8       30.02F
BRUNSWICK      SUNNY     73  43  33 NE6       30.02S
SAINT SIMONS   SUNNY     70  51  51 NE7G16    30.01F

$$

SCZ027-028-034-036>038-045-046-048>050-GAZ119-141-222000-
...LAKE AND SUPPLEMENTAL COASTAL OBSERVATIONS...

STATION/POSITION TIME  TEMP    WIND        PRES    WAVE   SWELL
                       AIR SEA DIR/SP/G            HT/PER HT/PER/DIR
                 (UTC) (F)     (DEG/KT/KT) (MB)    (FT/S) (FT/S/D)
UPR LAKE MARION  NOT AVBL
WINYAH BAY       1800   64     310/  7     1015.0F
LAKE MURRAY      1800   65     320/  3/  8 1016.6F
ACE BASIN NERRS  1800   68     360/  4     1017.0S
FORT PULASKI     1900   66     310/  9/ 11 1016.5F
SAPELO ISLAND    NOT AVBL

$$

ANZ835-935-AMZ111-154-330-350-352-354-374-450-454-472-222000-
...C-MAN AND BUOY OBSERVATIONS...

STATION/POSITION TIME  TEMP    WIND        PRES    WAVE   SWELL
                       AIR SEA DIR/SP/G            HT/PER HT/PER/DIR
                 (UTC) (F)     (DEG/KT/KT) (MB)    (FT/S) (FT/S/D)
FOLLY BEACH CMAN 1800   66     340/  8/ 12 1016.5F
BUOY 41004       1900   64 79  330/ 12/ 16 1015.3F   4/ 6   2/ 6
BUOY 41008       1900   65 76   10/ 12/ 16 1016.6F   4/ 6   2/ 60/ 6
5E ST. MARYS GA  1900      77                N/A     3/ 5
FRYING PAN BUOY  1900   63 75  310/ 14/ 17 1015.0F   4/ 5   2/150/ 9
BUOY 41025       1900   62     300/ 25/ 31 1009.9F   5/ 5   2/140/11
CAPE LOOKOUT NC  1800   63     300/ 15/ 19 1012.2F
BUOY 41002       1816   74 79  300/ 21/ 27 1011.2F   5/ 6   2/120/10
BUOY 41010       1900   79 80  330/ 10/ 12 1013.5F   3/ 5   2/360/ 5
BUOY 41012       NOT AVBL
ST AUGUSTINE FL  1900   70     360/ 15/ 19 1015.9F
CAPERS NEARSHORE 1800   65     340/ 10/ 12   N/A
FRIPP NEARSHORE  NOT AVBL


$$



USA.gov is the U.S. government's official web portal to all federal, state and local government web resources and services.